• In France
  • List of Countries
  • For 7 days
  • Water Temperature
  • Satellite Maps
  • Weather Map
  • Weather Widgets
  • user-avatar
    Login

    Hourly Weather Valledupar

    Today, 20 August, Monday

    Time Temperature Precipitation Wind Pressure Humidity
    00:00 +28°C° 0.3 mm 1 mps 744 mmHg 77%
    01:00 +28°C° 0 mm 1 mps 743 mmHg 79%
    02:00 +28°C° 0 mm 1 mps 743 mmHg 80%
    03:00 +28°C° 0 mm 1 mps 743 mmHg 81%
    04:00 +27°C° 0 mm 1 mps 743 mmHg 82%
    05:00 +28°C° 0 mm 1 mps 743 mmHg 79%
    06:00 +29°C° 0 mm 1 mps 744 mmHg 75%
    07:00 +29°C° 0 mm 1 mps 744 mmHg 72%
    08:00 +32°C° 0 mm 1 mps 744 mmHg 62%
    09:00 +34°C° 0 mm 1 mps 744 mmHg 53%
    10:00 +38°C° 0 mm 2 mps 744 mmHg 43%
    11:00 +39°C° 0.1 mm 2 mps 743 mmHg 40%
    12:00 +40°C° 0.1 mm 2 mps 743 mmHg 38%
    13:00 +41°C° 0.1 mm 2 mps 742 mmHg 36%
    14:00 +40°C° 0.3 mm 2 mps 742 mmHg 37%
    15:00 +39°C° 0.3 mm 2 mps 741 mmHg 39%
    16:00 +39°C° 0.3 mm 2 mps 740 mmHg 41%
    17:00 +36°C° 0.2 mm 2 mps 741 mmHg 48%
    18:00 +34°C° 0.2 mm 2 mps 741 mmHg 55%
    19:00 +31°C° 0.2 mm 1 mps 741 mmHg 62%
    20:00 +30°C° 0.2 mm 1 mps 742 mmHg 65%
    21:00 +30°C° 0.2 mm 2 mps 743 mmHg 67%
    22:00 +29°C° 0.2 mm 2 mps 743 mmHg 70%
    23:00 +29°C° 0.2 mm 2 mps 743 mmHg 72%

    Tomorrow, 21 August, Tuesday

    Time Temperature Precipitation Wind Pressure Humidity
    00:00 +29°C° 0.2 mm 2 mps 743 mmHg 74%
    01:00 +29°C° 0.2 mm 2 mps 743 mmHg 76%
    02:00 +29°C° 0.1 mm 1 mps 743 mmHg 76%
    03:00 +29°C° 0.1 mm 1 mps 743 mmHg 77%
    04:00 +28°C° 0.1 mm 1 mps 742 mmHg 77%
    05:00 +29°C° 0 mm 1 mps 743 mmHg 75%
    06:00 +29°C° 0 mm 1 mps 743 mmHg 73%
    07:00 +30°C° 0 mm 1 mps 743 mmHg 71%
    08:00 +32°C° 0 mm 1 mps 744 mmHg 62%
    09:00 +34°C° 0 mm 1 mps 744 mmHg 53%
    10:00 +36°C° 0 mm 1 mps 744 mmHg 44%
    11:00 +36°C° 0 mm 1 mps 743 mmHg 42%
    12:00 +37°C° 0 mm 1 mps 743 mmHg 40%
    13:00 +38°C° 0 mm 2 mps 742 mmHg 38%
    14:00 +38°C° 0.1 mm 2 mps 742 mmHg 40%
    15:00 +37°C° 0.1 mm 2 mps 741 mmHg 42%
    16:00 +37°C° 0.1 mm 2 mps 741 mmHg 44%
    17:00 +35°C° 0.3 mm 2 mps 741 mmHg 53%
    18:00 +32°C° 0.3 mm 2 mps 741 mmHg 62%
    19:00 +30°C° 0.3 mm 1 mps 742 mmHg 70%
    20:00 +30°C° 0.5 mm 1 mps 742 mmHg 74%
    21:00 +29°C° 0.5 mm 1 mps 743 mmHg 77%
    22:00 +29°C° 0.5 mm 1 mps 743 mmHg 80%
    23:00 +29°C° 0.4 mm 1 mps 743 mmHg 80%

    Day after tomorrow, 22 August, Wednesday

    Time Temperature Precipitation Wind Pressure Humidity
    00:00 +29°C° 0.4 mm 1 mps 743 mmHg 80%
    01:00 +28°C° 0.4 mm 1 mps 743 mmHg 80%
    02:00 +28°C° 0.7 mm 1 mps 743 mmHg 80%
    03:00 +28°C° 0.7 mm 1 mps 742 mmHg 80%
    04:00 +28°C° 0.7 mm 1 mps 742 mmHg 80%
    05:00 +29°C° 0.4 mm 1 mps 743 mmHg 78%
    06:00 +29°C° 0.4 mm 1 mps 743 mmHg 75%
    07:00 +30°C° 0.4 mm 1 mps 743 mmHg 73%
    08:00 +32°C° 0.1 mm 1 mps 743 mmHg 65%
    09:00 +34°C° 0.1 mm 1 mps 744 mmHg 57%
    10:00 +36°C° 0.1 mm 1 mps 744 mmHg 49%
    11:00 +37°C° 0.4 mm 1 mps 743 mmHg 48%
    12:00 +39°C° 0.4 mm 1 mps 743 mmHg 46%
    13:00 +39°C° 0.4 mm 2 mps 742 mmHg 44%
    14:00 +37°C° 1 mm 1 mps 741 mmHg 46%
    15:00 +36°C° 1 mm 1 mps 741 mmHg 49%
    16:00 +35°C° 1 mm 1 mps 740 mmHg 51%
    17:00 +33°C° 1.5 mm 1 mps 741 mmHg 59%
    18:00 +31°C° 1.5 mm 1 mps 741 mmHg 66%
    19:00 +29°C° 1.5 mm 1 mps 741 mmHg 73%
    20:00 +29°C° 0.8 mm 1 mps 742 mmHg 74%
    21:00 +29°C° 0.8 mm 1 mps 743 mmHg 75%
    22:00 +28°C° 0.8 mm 1 mps 743 mmHg 75%
    23:00 +28°C° 0.7 mm 1 mps 743 mmHg 75%

    23 August, Thursday

    Time Temperature Precipitation Wind Pressure Humidity
    00:00 +28°C° 0.7 mm 1 mps 743 mmHg 75%
    01:00 +28°C° 0.7 mm 1 mps 742 mmHg 75%
    02:00 +28°C° 0.8 mm 1 mps 742 mmHg 75%
    03:00 +28°C° 0.8 mm 1 mps 742 mmHg 74%
    04:00 +28°C° 0.8 mm 1 mps 742 mmHg 73%
    05:00 +28°C° 0.8 mm 1 mps 742 mmHg 72%
    06:00 +28°C° 0.8 mm 1 mps 743 mmHg 71%
    07:00 +29°C° 0.8 mm 1 mps 743 mmHg 69%
    08:00 +30°C° 0.5 mm 1 mps 744 mmHg 64%
    09:00 +32°C° 0.5 mm 1 mps 744 mmHg 60%
    10:00 +33°C° 0.5 mm 1 mps 744 mmHg 55%
    11:00 +34°C° 0.4 mm 1 mps 744 mmHg 52%
    12:00 +35°C° 0.4 mm 1 mps 743 mmHg 50%
    13:00 +36°C° 0.4 mm 1 mps 742 mmHg 47%
    14:00 +35°C° 0.5 mm 1 mps 742 mmHg 48%
    15:00 +34°C° 0.5 mm 1 mps 741 mmHg 50%
    16:00 +34°C° 0.5 mm 1 mps 741 mmHg 51%
    17:00 +32°C° 0.8 mm 1 mps 741 mmHg 56%
    18:00 +30°C° 0.8 mm 1 mps 741 mmHg 61%
    19:00 +29°C° 0.8 mm 1 mps 742 mmHg 66%
    20:00 +29°C° 0.6 mm 1 mps 742 mmHg 68%
    21:00 +28°C° 0.6 mm 1 mps 743 mmHg 70%
    22:00 +28°C° 0.6 mm 1 mps 744 mmHg 72%
    23:00 +28°C° 0.6 mm 1 mps 743 mmHg 75%

    24 August, Friday

    Time Temperature Precipitation Wind Pressure Humidity
    00:00 +28°C° 0.6 mm 1 mps 743 mmHg 77%
    01:00 +28°C° 0.6 mm 1 mps 742 mmHg 79%
    02:00 +27°C° 0.8 mm 1 mps 742 mmHg 80%
    03:00 +27°C° 0.8 mm 1 mps 742 mmHg 81%
    04:00 +27°C° 0.8 mm 1 mps 742 mmHg 82%
    05:00 +27°C° 1.2 mm 1 mps 742 mmHg 81%
    06:00 +26°C° 1.2 mm 0 mps 743 mmHg 80%
    07:00 +26°C° 1.2 mm 0 mps 743 mmHg 79%
    08:00 +29°C° 1 mm 1 mps 743 mmHg 74%
    09:00 +31°C° 1 mm 1 mps 744 mmHg 70%
    10:00 +32°C° 1 mm 1 mps 744 mmHg 65%
    11:00 +33°C° 0.6 mm 1 mps 743 mmHg 62%
    12:00 +34°C° 0.6 mm 1 mps 743 mmHg 59%
    13:00 +34°C° 0.6 mm 1 mps 742 mmHg 56%
    14:00 +34°C° 0.7 mm 1 mps 742 mmHg 56%
    15:00 +34°C° 0.7 mm 1 mps 741 mmHg 56%
    16:00 +33°C° 0.7 mm 1 mps 741 mmHg 56%
    17:00 +32°C° 0.5 mm 1 mps 742 mmHg 61%
    18:00 +30°C° 0.5 mm 1 mps 742 mmHg 66%
    19:00 +29°C° 0.5 mm 1 mps 743 mmHg 71%
    20:00 +29°C° 0.4 mm 1 mps 743 mmHg 72%
    21:00 +28°C° 0.4 mm 1 mps 744 mmHg 73%
    22:00 +28°C° 0.4 mm 1 mps 744 mmHg 74%
    23:00 +28°C° 0.6 mm 1 mps 744 mmHg 75%

    25 August, Saturday

    Time Temperature Precipitation Wind Pressure Humidity
    00:00 +28°C° 0.6 mm 1 mps 743 mmHg 76%
    01:00 +27°C° 0.6 mm 1 mps 743 mmHg 78%
    02:00 +27°C° 0.7 mm 1 mps 743 mmHg 78%
    03:00 +27°C° 0.7 mm 1 mps 743 mmHg 79%
    04:00 +27°C° 0.7 mm 1 mps 743 mmHg 79%
    05:00 +27°C° 1.4 mm 1 mps 743 mmHg 79%
    06:00 +26°C° 1.4 mm 0 mps 744 mmHg 78%
    07:00 +26°C° 1.4 mm 0 mps 744 mmHg 77%
    08:00 +29°C° 1.4 mm 1 mps 744 mmHg 74%
    09:00 +30°C° 1.4 mm 1 mps 745 mmHg 70%
    10:00 +31°C° 1.4 mm 1 mps 745 mmHg 67%
    11:00 +32°C° 1 mm 1 mps 744 mmHg 65%
    12:00 +32°C° 1 mm 1 mps 744 mmHg 63%
    13:00 +33°C° 1 mm 1 mps 743 mmHg 61%
    14:00 +32°C° 0.6 mm 1 mps 743 mmHg 61%
    15:00 +32°C° 0.6 mm 1 mps 742 mmHg 60%
    16:00 +32°C° 0.6 mm 1 mps 742 mmHg 59%
    17:00 +31°C° 0.3 mm 1 mps 742 mmHg 62%
    18:00 +30°C° 0.3 mm 1 mps 743 mmHg 65%
    19:00 +29°C° 0.3 mm 1 mps 743 mmHg 67%
    20:00 +29°C° 0.4 mm 1 mps 744 mmHg 68%
    21:00 +28°C° 0.4 mm 1 mps 744 mmHg 69%
    22:00 +28°C° 0.4 mm 1 mps 745 mmHg 70%
    23:00 +28°C° 0.8 mm 1 mps 744 mmHg 72%
    Show more